Location: Dob?e?
(49.9411°N, 15.1496°E)
Time: 19:30:56
(UTC+00:00)

NOAA 18 - Pass Details

Date: 25 October 2021
Orbit: 840 x 861 km, 99.0° (Epoch: 01 December)

Event Time Altitude Azimuth Distance (km) Brightness Sun altitude
Exits shadow 18:50:15 15° 16° (NNE) 2,183 7.3 -29.6°
Drops below altitude 10° 18:51:27 10° 7° (N) 2,510 7.7 -29.8°
Sets 18:54:17 0° 353° (N) 3,452 8.7 -30.2°
